Location: Potawatomi Wildlife Park
(41.2308°N, 86.1050°W)
Time: 04:57:47
(UTC-05:00)

Daily predictions for brighter satellites

Satellite Brightness Start Highest point End
(mag) Time Altitude Azimuth Time Altitude Azimuth Time Altitude Azimuth
USA 229 DEB 4.4 04:50:53 50° NE 04:51:17 51° NE 04:58:17 10° ESE
USA 229 4.4 04:50:57 50° NE 04:51:23 51° NE 04:58:22 10° ESE
ISS 0.3 05:16:07 10° E 05:16:07 10° E 05:16:10 10° E
Cosmos 2237 Rocket 3.5 05:22:48 29° S 05:22:48 29° S 05:25:30 10° SSE
SL-16 R/B 2.8 05:22:48 47° NNE 05:23:54 54° ENE 05:29:25 10° SE
Cosmos 2297 Rocket 2.6 05:33:23 53° N 05:33:23 53° N 05:37:41 10° NNE
Feng Yun 1-1 Rocket 4.4 05:27:01 10° NNE 05:31:23 59° NNE 05:31:23 59° NNE
Cosmos 2233 Rocket 4.3 05:30:33 10° S 05:36:41 64° E 05:42:55 10° NNE
COSMO-SKYMED 1 3.4 05:34:27 10° SSE 05:38:37 49° ENE 05:39:29 42° NE
USA 234 4.3 05:34:17 10° E 05:40:08 36° NNE 05:42:59 25° NNW
Cosmos 2227 Rocket 3.2 05:46:54 31° N 05:46:54 31° N 05:50:08 10° NNE
Meteor 1-4 Rocket 4.2 05:48:27 29° NE 05:48:27 29° NE 05:50:31 10° NNE
BREEZE-M DEB (TANK) 4.4 05:52:34 33° SSW 05:52:34 33° SSW 05:54:43 10° SSE
Cosmos 1500 Rocket 3.8 05:52:33 40° N 05:54:04 70° E 05:58:30 10° SSE
Meteor 1-28 Rocket 4.4 05:50:34 10° SE 05:54:07 41° ENE 05:55:51 24° NNE
Cosmos 1816 Rocket 4.4 05:49:28 10° N 05:55:49 76° W 06:02:02 10° S
Ariane Rocket 4.0 05:52:44 10° NNE 05:57:39 46° E 06:02:32 10° S
SL-14 R/B 4.3 05:55:40 18° N 05:58:23 47° ENE 06:02:18 10° SSE
Cosmos 2346 Rocket 4.4 05:55:42 10° N 06:01:52 87° E 06:07:56 10° S
Cosmos 220 Rocket 3.9 06:01:45 49° SSW 06:02:56 87° WNW 06:07:21 10° NNE
Tsikada Rocket 4.1 06:04:34 26° NNW 06:07:56 50° W 06:13:58 10° SSW
SKYMED 3 4.4 06:04:18 10° S 06:08:37 77° WSW 06:09:53 45° NNW
DMSP B5D1-3 4.4 06:08:43 10° SSE 06:13:50 90° SW 06:18:59 10° NNW
ATLAS CENTAUR R/B 4.5 06:14:19 10° N 06:15:50 11° NNE 06:17:48 10° NE
CZ-4 R/B 3.5 06:17:37 10° NE 06:21:10 28° E 06:24:44 10° SSE
Tiangong 2 4.4 06:22:44 10° SSE 06:23:05 10° SE 06:23:26 10° SE
SeaSat 1 4.2 06:20:39 10° N 06:22:19 16° NNW 06:22:19 16° NNW
SKYMED 2 3.7 06:22:32 10° S 06:26:43 48° W 06:28:08 34° NW
Cosmos 1464 Rocket 4.3 06:20:48 10° S 06:27:06 72° E 06:33:22 10° NNE
Cosmos 968 Rocket 3.5 06:22:42 10° SSW 06:27:52 58° WNW 06:33:05 10° NNE
Cosmos 1603 4.0 06:22:17 10° NNW 06:27:53 66° ENE 06:33:29 10° SSE
GPS 2-05 Rocket1 4.4 06:31:02 20° SSW 06:32:18 26° S 06:35:10 10° ESE
NOAA 6 4.4 06:29:13 10° N 06:34:00 39° WNW 06:38:47 10° SW
Cosmos 773 Rocket 4.0 06:33:01 10° NNW 06:38:21 87° ENE 06:43:39 10° SSE
Coronas F rocket 4.2 06:38:07 10° NE 06:39:39 15° ENE 06:41:10 10° ESE
Cosmos 1328 4.3 06:40:34 28° NW 06:41:49 36° W 06:45:29 10° SSW
USA 229 DEB 4.4 06:38:23 22° WNW 06:42:04 37° WSW 06:48:32 10° S
USA 229 4.4 06:38:26 22° WNW 06:42:11 37° WSW 06:48:40 10° S
Cosmos 304 Rocket 4.5 06:43:29 24° WNW 06:45:17 32° W 06:49:32 10° SSW
Cosmos 1072 Rocket 4.4 06:40:44 10° SSW 06:46:53 74° W 06:53:03 10° N
Cosmos 2221 2.4 06:44:46 10° SSW 06:49:06 73° W 06:53:26 10° N
ISS -2.7 06:48:47 30° W 06:49:51 40° SW 06:52:55 10° SSE
OAO 2 Rocket 4.3 06:48:32 16° WSW 06:51:51 35° S 06:56:19 10° SE
CSL-04 Rocket 3.5 06:48:11 10° N 06:53:27 66° WNW 06:58:40 10° SSW
Aureole 1 4.2 06:51:09 10° SSW 06:54:10 68° WNW 06:57:43 10° NNE
NOSS 3-1 (A) 4.1 06:48:28 10° NW 06:56:10 86° WSW 07:04:36 10° SSE
Cosmos 2227 4.1 06:50:48 10° SSW 06:56:22 66° WNW 07:01:59 10° NNE
Cosmos 2058 3.1 06:52:53 10° NNW 06:56:50 45° W 07:00:47 10° SSW
Genesis I 3.1 06:53:48 16° NW 06:56:53 78° WSW 07:00:46 10° SSE
Cosmos 1184 Rocket 3.2 06:56:02 10° N 06:59:20 64° E 07:02:36 10° SSE
SPOT 3 Rocket 4.4 06:56:09 10° NNE 07:01:15 54° E 07:06:22 10° S
Cosmos 1777 Rocket 4.0 06:56:28 10° SW 07:01:34 55° WNW 07:06:42 10° N
ATLAS 2AS CENTAUR R/B 4.0 06:57:12 10° NNW 07:04:50 42° NE 07:12:01 10° ESE
SL-16 R/B 3.4 07:04:45 15° WNW 07:07:33 21° W 07:11:41 10° SSW
SL-8 R/B 3.9 07:03:57 15° WNW 07:07:54 70° NNE 07:12:39 10° ESE
DELTA 2 R/B (1) 4.3 07:03:41 10° WSW 07:09:03 52° SSE 07:14:28 10° E
TELKOM 3 3.5 07:09:30 17° W 07:11:06 38° NNW 07:13:10 10° NE
Cosmos 1703 3.4 07:07:18 10° NNW 07:11:08 53° W 07:14:57 10° S
PSLV R/B 3.5 07:11:31 10° WSW 07:14:52 69° SSE 07:18:12 10° E
COSMO-SKYMED 1 4.2 07:12:37 10° SW 07:15:02 15° W 07:16:41 12° WNW
IDEFIX/ARIANE 42P 2.6 07:11:06 10° N 07:16:24 79° WNW 07:21:39 10° SSW
Cosmos 2297 Rocket 3.8 07:15:16 12° WNW 07:17:01 13° NW 07:19:46 10° NNW
Helios 1B rocket 2.6 07:13:22 10° SSE 07:17:28 77° ENE 07:21:35 10° N
Cosmos 2228 Rocket 3.5 07:15:08 10° S 07:19:33 67° E 07:23:57 10° NNE
Cosmos 2151 4.3 07:16:43 10° NW 07:19:45 19° W 07:22:46 10° SW
ERBS 3.2 07:18:03 13° WNW 07:20:45 34° SW 07:23:51 10° SSE
AQUARIUS 4.1 07:16:16 10° N 07:20:47 75° WNW 07:25:15 10° SSW
Cosmos 1356 Rocket 3.6 07:17:23 10° NNW 07:21:20 47° W 07:25:19 10° S
USA 234 3.3 07:16:09 10° SE 07:22:43 85° SW 07:29:19 10° NW
SJ-7 4.3 07:19:04 10° N 07:23:04 71° WNW 07:27:05 10° SSW
Cosmos 1805 Rocket 4.0 07:19:54 10° NNW 07:24:03 40° W 07:28:09 10° SSW
Cosmos 1340 Rocket 4.0 07:21:05 10° NW 07:24:09 22° W 07:27:13 10° SW
Cosmos 2344 4.0 07:17:06 10° SSW 07:24:44 75° ESE 07:33:14 10° NE
Cosmos 1271 Rocket 4.1 07:24:22 10° WSW 07:26:59 17° WNW 07:29:36 10° NNW
EP 2 4.3 07:26:38 10° SSW 07:29:14 79° ESE 07:31:57 10° NE
Meteor 1-29 3.0 07:28:31 10° SSE 07:32:01 88° ENE 07:35:32 10° NNW
BREEZE-M DEB (TANK) 3.4 07:31:37 10° NW 07:33:54 23° NNE 07:35:42 10° ENE
Cosmos 923 Rocket 4.5 07:29:53 10° NNW 07:34:47 42° WSW 07:39:42 10° S
Ariane Rocket 4.1 07:32:25 10° NNW 07:36:17 22° WNW 07:40:07 10° WSW
Cosmos 1484 Rocket 2.9 07:35:41 10° NNE 07:39:43 88° WNW 07:43:42 10° SSW
Cosmos 292 Rocket 4.3 07:36:36 10° NW 07:41:03 39° WSW 07:45:29 10° S
Cosmos 2034 Rocket 4.4 07:35:56 10° SW 07:41:43 41° WNW 07:47:34 10° N
